KE5KZS Weather Reports


time (UTC)temp
C
wind
direction
speed
KPH
gust
KPH
rain 1hr
cm
rain 24hr
cm
rain mn
cm
humidity
%
barometer
mb
20260906230017 36 90 3.2 9.7 0.00 0.00 0.00 44 1009.2
20260906225017 37 113 4.8 14.5 0.00 0.00 0.00 43 1009.2
20260906224017 37 90 4.8 16.1 0.00 0.00 0.00 43 1009.2
20260906223017 37 90 6.4 16.1 0.00 0.00 0.00 43 1009.3
20260906222037 37 90 4.8 17.7 0.00 0.00 0.00 43 1009.4
20260906221016 37 113 4.8 14.5 0.00 0.00 0.00 43 1009.5
20260906220016 37 90 4.8 14.5 0.00 0.00 0.00 42 1009.5
20260906215017 38 90 4.8 12.9 0.00 0.00 0.00 42 1009.7
20260906214057 38 90 4.8 14.5 0.00 0.00 0.00 43 1009.9
20260906213017 38 113 4.8 12.9 0.00 0.00 0.00 43 1010.1
20260906212017 38 113 4.8 11.3 0.00 0.00 0.00 42 1010.2
20260906211017 38 158 6.4 14.5 0.00 0.00 0.00 42 1010.4
20260906210017 38 45 4.8 11.3 0.00 0.00 0.00 43 1010.5
20260906205017 38 68 4.8 14.5 0.00 0.00 0.00 43 1010.5
20260906204017 38 90 6.4 17.7 0.00 0.00 0.00 42 1010.8
20260906203017 38 113 6.4 16.1 0.00 0.00 0.00 43 1010.9
20260906202016 38 90 4.8 16.1 0.00 0.00 0.00 43 1011.0
20260906201016 37 45 4.8 16.1 0.00 0.00 0.00 44 1011.0
20260906200017 38 90 4.8 14.5 0.00 0.00 0.00 44 1011.1
20260906195037 37 68 4.8 12.9 0.00 0.00 0.00 45 1011.1
20260906194016 37 90 4.8 12.9 0.00 0.00 0.00 46 1011.2
20260906193017 37 113 6.4 19.3 0.00 0.00 0.00 45 1011.3
20260906192017 37 45 3.2 14.5 0.00 0.00 0.00 46 1011.3
20260906191017 37 113 3.2 12.9 0.00 0.00 0.00 46 1011.5
20260906190037 37 45 4.8 19.3 0.00 0.00 0.00 46 1011.6
20260906185016 37 113 8.0 19.3 0.00 0.00 0.00 46 1011.7
20260906184016 37 113 6.4 20.9 0.00 0.00 0.00 46 1011.8
20260906183036 38 90 4.8 14.5 0.00 0.00 0.00 46 1012.0
20260906182037 37 113 4.8 14.5 0.00 0.00 0.00 47 1012.2
20260906181017 37 90 3.2 8.0 0.00 0.00 0.00 49 1012.3
20260906180037 37 113 4.8 12.9 0.00 0.00 0.00 50 1012.5
20260906175016 36 113 6.4 17.7 0.00 0.00 0.00 50 1012.7
20260906174036 36 113 3.2 9.7 0.00 0.00 0.00 52 1012.8
20260906173530 36 90 3.2 4.8 0.00 0.00 0.00 52 1013.0
20260906172537 36 135 4.8 12.9 0.00 0.00 0.00 52 1013.0
20260906171516 36 45 4.8 14.5 0.00 0.00 0.00 54 1012.9
20260906170516 36 113 4.8 11.3 0.00 0.00 0.00 53 1013.0
20260906165537 35 45 4.8 14.5 0.00 0.00 0.00 54 1013.1
20260906164516 35 113 4.8 11.3 0.00 0.00 0.00 55 1013.2
20260906163516 35 68 4.8 12.9 0.00 0.00 0.00 56 1013.3
20260906162517 35 45 3.2 11.3 0.00 0.00 0.00 55 1013.3
20260906161516 35 135 3.2 11.3 0.00 0.00 0.00 55 1013.2
20260906160517 35 135 4.8 9.7 0.00 0.00 0.00 56 1013.2
20260906155517 35 135 3.2 14.5 0.00 0.00 0.00 58 1013.4
20260906154537 35 113 4.8 8.0 0.00 0.00 0.00 58 1013.4
20260906153516 35 113 3.2 12.9 0.00 0.00 0.00 60 1013.4
20260906152516 33 113 1.6 6.4 0.00 0.00 0.00 62 1013.2
20260906151516 33 158 3.2 6.4 0.00 0.00 0.00 63 1013.0
20260906150516 33 90 1.6 4.8 0.00 0.00 0.00 63 1013.0
20260906145516 32 113 3.2 9.7 0.00 0.00 0.00 64 1012.8
20260906144516 32 113 1.6 4.8 0.00 0.00 0.00 66 1012.9
20260906143516 31 90 1.6 4.8 0.00 0.00 0.00 69 1012.9
20260906142517 31 68 3.2 9.7 0.00 0.00 0.00 70 1012.8
20260906141517 30 68 1.6 4.8 0.00 0.00 0.00 70 1012.8
20260906140517 31 158 1.6 6.4 0.00 0.00 0.00 71 1012.8
20260906135517 30 158 1.6 6.4 0.00 0.00 0.00 72 1012.8
20260906134517 29 158 1.6 3.2 0.00 0.00 0.00 73 1012.8
20260906133516 28 158 1.6 6.4 0.00 0.00 0.00 77 1012.9
20260906132516 27 158 1.6 3.2 0.00 0.00 0.00 80 1012.9
20260906131517 27 0.0 3.2 0.00 0.00 0.00 83 1012.8
20260906130537 26 0.0 3.2 0.00 0.00 0.00 86 1012.7
20260906125517 25 0.0 3.2 0.00 0.00 0.00 87 1012.5
20260906124517 25 0.0 0.0 0.00 0.00 0.00 87 1012.4
20260906123536 25 0.0 0.0 0.00 0.00 0.00 86 1012.4
20260906122517 25 0.0 0.0 0.00 0.00 0.00 86 1012.4
20260906121516 25 0.0 0.0 0.00 0.00 0.00 87 1012.3
20260906120517 25 0.0 0.0 0.00 0.00 0.00 86 1012.2
20260906115516 25 0.0 0.0 0.00 0.00 0.00 86 1011.9
20260906114517 25 0.0 0.0 0.00 0.00 0.00 86 1012.1
20260906113517 25 0.0 0.0 0.00 0.00 0.00 86 1011.9
20260906112537 25 0.0 0.0 0.00 0.00 0.00 85 1011.7
20260906111516 25 0.0 0.0 0.00 0.00 0.00 84 1011.8
20260906110536 25 0.0 0.0 0.00 0.00 0.00 84 1011.7
20260906105517 25 0.0 0.0 0.00 0.00 0.00 83 1011.6
20260906104517 25 0.0 0.0 0.00 0.00 0.00 82 1011.5
20260906103517 25 0.0 0.0 0.00 0.00 0.00 82 1011.5
20260906102516 26 0.0 0.0 0.00 0.00 0.00 81 1011.6
20260906101517 26 0.0 0.0 0.00 0.00 0.00 81 1011.6
20260906100517 26 0.0 0.0 0.00 0.00 0.00 80 1011.5
20260906095537 26 0.0 0.0 0.00 0.00 0.00 80 1011.4
20260906094517 27 0.0 0.0 0.00 0.00 0.00 79 1011.2
20260906093516 27 0.0 0.0 0.00 0.00 0.00 78 1011.2
20260906092517 27 0.0 0.0 0.00 0.00 0.00 77 1011.2
20260906091516 27 0.0 0.0 0.00 0.00 0.00 77 1011.1
20260906090517 27 158 1.6 3.2 0.00 0.00 0.00 76 1011.1
20260906085517 27 158 1.6 3.2 0.00 0.00 0.00 76 1011.0
20260906084517 28 158 1.6 6.4 0.00 0.00 0.00 75 1011.0
20260906083516 28 158 3.2 8.0 0.00 0.00 0.00 75 1010.9
20260906082517 28 158 3.2 8.0 0.00 0.00 0.00 75 1010.9
20260906081517 28 180 3.2 8.0 0.00 0.00 0.00 74 1010.9
20260906080517 28 203 1.6 8.0 0.00 0.00 0.00 74 1010.9
20260906075516 28 158 3.2 8.0 0.00 0.00 0.00 74 1011.0
20260906074516 28 158 4.8 9.7 0.00 0.00 0.00 74 1011.2
20260906073517 28 158 4.8 9.7 0.00 0.00 0.00 74 1011.2
20260906072516 28 180 1.6 4.8 0.00 0.00 0.00 74 1011.4
20260906071516 28 180 3.2 6.4 0.00 0.00 0.00 74 1011.4
20260906070517 28 180 1.6 3.2 0.00 0.00 0.00 73 1011.4
20260906065516 28 180 1.6 4.8 0.00 0.00 0.00 73 1011.4
20260906064516 28 203 3.2 4.8 0.00 0.00 0.00 73 1011.4
20260906063517 28 203 1.6 4.8 0.00 0.00 0.00 73 1011.4
20260906062517 28 135 1.6 4.8 0.00 0.00 0.00 72 1011.4
20260906061516 28 135 1.6 4.8 0.00 0.00 0.00 72 1011.4
20260906060517 29 135 1.6 3.2 0.00 0.00 0.00 71 1011.4
20260906055517 29 0.0 0.0 0.00 0.00 0.00 70 1011.5
20260906054517 29 135 1.6 4.8 0.00 0.00 0.00 70 1011.5
20260906053537 29 135 1.6 4.8 0.00 0.00 0.00 69 1011.4
20260906052516 30 135 1.6 3.2 0.00 0.00 0.00 69 1011.5
20260906051516 30 0.0 3.2 0.00 0.00 0.00 68 1011.7
20260906050516 30 135 3.2 6.4 0.00 0.00 0.00 68 1011.5
20260906045517 30 135 3.2 8.0 0.00 0.00 0.00 68 1011.5
20260906044517 30 135 3.2 6.4 0.00 0.00 0.00 67 1011.4
20260906043517 30 158 3.2 9.7 0.00 0.00 0.00 67 1011.3
20260906042517 30 0.0 3.2 0.00 0.00 0.00 66 1011.3
20260906041517 30 158 1.6 4.8 0.00 0.00 0.00 65 1011.3
20260906040517 30 158 1.6 8.0 0.00 0.00 0.00 64 1011.2
20260906035517 31 158 1.6 6.4 0.00 0.00 0.00 64 1011.2
20260906034517 31 158 1.6 6.4 0.00 0.00 0.00 63 1011.3
20260906033517 31 135 3.2 8.0 0.00 0.00 0.00 62 1011.2
20260906032517 31 135 3.2 8.0 0.00 0.00 0.00 62 1011.3
20260906031517 31 135 4.8 12.9 0.00 0.00 0.00 61 1011.2
20260906030517 31 135 4.8 14.5 0.00 0.00 0.00 61 1011.3
20260906025517 31 158 3.2 12.9 0.00 0.00 0.00 61 1011.4
20260906024517 32 158 4.8 9.7 0.00 0.00 0.00 61 1011.1
20260906023517 32 158 4.8 8.0 0.00 0.00 0.00 60 1010.8
20260906022517 32 113 3.2 6.4 0.00 0.00 0.00 59 1010.6
20260906021517 32 113 6.4 16.1 0.00 0.00 0.00 58 1010.6
20260906020517 32 113 8.0 19.3 0.00 0.00 0.00 57 1010.3
20260906015517 33 158 8.0 16.1 0.00 0.00 0.00 56 1010.2
20260906014517 33 135 6.4 16.1 0.00 0.00 0.00 54 1010.0
20260906013517 33 158 6.4 20.9 0.00 0.00 0.00 52 1009.8
20260906012537 34 113 1.6 6.4 0.00 0.00 0.00 49 1009.5
20260906011517 34 113 1.6 4.8 0.00 0.00 0.00 48 1009.3
20260906010517 34 113 3.2 6.4 0.00 0.00 0.00 48 1009.2
20260906005517 35 90 3.2 6.4 0.00 0.00 0.00 47 1009.2
20260906004517 35 90 1.6 4.8 0.00 0.00 0.00 46 1009.2
20260906003537 35 90 1.6 6.4 0.00 0.00 0.00 46 1009.2
20260906002517 35 90 1.6 6.4 0.00 0.00 0.00 45 1009.2
20260906001517 35 90 1.6 4.8 0.00 0.00 0.00 44 1009.3
20260906000517 36 90 3.2 12.9 0.00 0.00 0.00 44 1009.2
20260905235517 36 68 1.6 6.4 0.00 0.00 0.00 43 1009.1
20260905234517 36 113 3.2 6.4 0.00 0.00 0.00 43 1009.0
20260905233517 36 113 3.2 6.4 0.00 0.00 0.00 43 1009.0
20260905232517 36 45 3.2 8.0 0.00 0.00 0.00 43 1009.1
20260905231537 36 113 3.2 11.3 0.00 0.00 0.00 43 1009.2
20260905230537 36 90 3.2 11.3 0.00 0.00 0.00 42 1009.3